EW0680 Weather Reports


time (UTC)temp
F
wind
direction
speed
knots
gust
knots
rain 1hr
in
rain 24hr
in
rain mn
in
humidity
%
barometer
mb
20260504214551 71 294 1.7 6.1 0.00 0.01 0.00 56 1004.8
20260504213049 72 248 2.6 5.2 0.00 0.01 0.00 55 1004.9
20260504211558 73 281 1.7 7.0 0.00 0.01 0.00 53 1005.0
20260504204503 73 233 2.6 7.0 0.00 0.02 0.00 51 1004.8
20260504203009 71 274 2.6 7.8 0.00 0.02 0.00 57 1005.2
20260504201508 70 314 3.5 9.6 0.00 0.02 0.00 58 1005.7
20260504200013 72 304 3.5 7.8 0.00 0.02 0.00 57 1006.1
20260504194513 71 307 2.6 7.0 0.00 0.02 0.00 61 1006.4
20260504193018 71 280 2.6 6.1 0.00 0.02 0.00 57 1006.4
20260504191521 71 248 1.7 6.1 0.00 0.02 0.00 60 1006.4
20260504190021 72 276 2.6 7.8 0.00 0.02 0.00 56 1006.1
20260504184532 72 290 1.7 8.7 0.00 0.02 0.00 58 1006.6
20260504183034 71 260 3.5 7.8 0.00 0.02 0.00 58 1006.7
20260504181535 71 277 2.6 7.0 0.00 0.02 0.00 58 1006.6
20260504180025 72 303 2.6 7.0 0.00 0.02 0.00 55 1006.6
20260504174527 73 292 1.7 8.7 0.00 0.02 0.00 55 1006.2
20260504173029 73 258 1.7 8.7 0.00 0.02 0.00 58 1006.2
20260504171533 73 321 1.7 7.0 0.00 0.02 0.00 57 1006.2
20260504120114 50 209 0.0 2.6 0.00 0.02 0.00 78 1008.3
20260504081522 48 262 0.0 0.0 0.00 0.02 0.00 79 1009.5
20260504044525 52 226 0.9 4.3 0.00 0.02 0.00 71 1011.3
20260504043030 51 243 1.7 4.3 0.00 0.02 0.00 71 1011.4
20260504041527 51 211 0.0 3.5 0.00 0.02 0.00 73 1011.7
20260504040030 51 192 0.0 2.6 0.00 0.02 0.00 74 1011.8
20260504034526 50 190 1.7 4.3 0.00 0.02 0.02 76 1012.0
20260504033030 50 193 1.7 4.3 0.00 0.02 0.02 78 1012.1
20260504031541 50 205 1.7 4.3 0.00 0.02 0.02 79 1012.2
20260504030055 50 196 1.7 4.3 0.00 0.02 0.02 79 1012.3
20260504024544 50 190 2.6 4.3 0.00 0.02 0.02 79 1012.6
20260504023050 50 198 2.6 4.3 0.00 0.02 0.02 79 1012.6
20260504021551 50 185 1.7 3.5 0.00 0.02 0.02 78 1012.6
20260504020054 49 179 3.5 6.1 0.00 0.02 0.02 81 1012.7
20260504014605 49 178 1.7 4.3 0.00 0.02 0.02 84 1012.8
20260504013058 49 177 3.5 6.1 0.00 0.02 0.02 84 1012.7
20260504011510 49 173 4.3 6.1 0.00 0.02 0.02 84 1012.7
20260504010011 49 175 3.5 7.0 0.00 0.02 0.02 83 1012.8
20260504004534 49 175 5.2 7.8 0.00 0.02 0.02 82 1012.8
20260504003104 49 170 5.2 9.6 0.00 0.02 0.02 81 1012.7
20260504003004 49 176 5.2 9.6 0.00 0.02 0.02 81 1012.7
20260504001555 49 171 4.3 7.8 0.00 0.02 0.02 81 1012.7
20260504000100 49 157 5.2 8.7 0.00 0.02 0.02 80 1012.8
20260503234510 49 160 6.1 9.6 0.00 0.02 0.02 80 1012.7
20260503233007 49 165 6.1 9.6 0.00 0.02 0.02 80 1012.8
20260503231510 49 166 5.2 8.7 0.00 0.02 0.02 82 1012.7
20260503230012 49 173 6.1 9.6 0.00 0.02 0.02 82 1012.9
20260503224513 48 152 6.1 9.6 0.00 0.02 0.02 82 1013.2
20260503223013 49 165 5.2 9.6 0.00 0.02 0.02 84 1013.5
20260503221516 49 140 6.1 7.8 0.00 0.02 0.02 83 1014.1
20260503220056 48 119 3.5 6.1 0.01 0.02 0.02 84 1014.4